User: anonymous   Login
Location: Hepcat Sky Observatory
(29.9800°N, 95.6500°W)
Time: 18:47:48
(UTC-05:00)
Language:

Cosmos 2151 Rocket - Orbit

View from above orbital plane
View from above orbital plane
View from above satellite
View from above satellite

Ground track
Ground track

The orbit data is extracted from the following two-line orbital elements,

1 21423U 91042B   16176.53158995  .00000099  00000-0  10090-4 0  9996
2 21423  82.4948 295.6214 0017212 346.9611  13.1154 14.79639501349692
Epoch (UTC): 24 June 2016 12:45:29
Eccentricity: 0.0017212
inclination: 82.4948°
perigee height: 618 km
apogee height: 642 km
right ascension of ascending node: 295.6214°
argument of perigee: 346.9611°
revolutions per day: 14.79639501
mean anomaly at epoch: 13.1154°
orbit number at epoch: 34969

The dashed part of the orbit path shows where the satellite is in the earth's shadow,  

DLR